TimePST,TemperatureF,Dew PointF,Humidity,Sea Level PressureIn,VisibilityMPH,Wind Direction,Wind SpeedMPH,Gust SpeedMPH,PrecipitationIn,Events,Conditions,WindDirDegrees,DateUTC
12:53 AM,8.1,-2.9,61,30.16,10.0,NNE,6.9,-,N/A,,Overcast,20,2013-12-07 08:53:00
1:53 AM,7.0,-2.9,64,30.15,10.0,NNE,6.9,-,N/A,,Overcast,20,2013-12-07 09:53:00
2:53 AM,6.1,-5.1,60,30.16,10.0,Calm,Calm,-,N/A,,Clear,0,2013-12-07 10:53:00
3:53 AM,3.0,-5.1,69,30.17,10.0,Calm,Calm,-,N/A,,Mostly Cloudy,0,2013-12-07 11:53:00
4:53 AM,3.9,-5.1,66,30.16,10.0,Calm,Calm,-,N/A,,Overcast,0,2013-12-07 12:53:00
5:53 AM,-0.9,-9.0,69,30.19,10.0,Calm,Calm,-,N/A,,Clear,0,2013-12-07 13:53:00
6:53 AM,3.0,-7.1,63,30.19,10.0,NNE,8.1,-,N/A,,Clear,20,2013-12-07 14:53:00
7:53 AM,1.0,-8.0,66,30.23,10.0,Calm,Calm,-,N/A,,Clear,0,2013-12-07 15:53:00
8:53 AM,3.0,-7.1,63,30.25,10.0,WNW,4.6,-,N/A,,Clear,290,2013-12-07 16:53:00
9:53 AM,7.0,-4.0,61,30.27,10.0,NW,3.5,-,N/A,,Clear,320,2013-12-07 17:53:00
10:53 AM,8.1,-2.0,64,30.28,10.0,West,3.5,-,N/A,,Clear,280,2013-12-07 18:53:00
11:53 AM,8.1,-2.0,64,30.29,10.0,West,8.1,-,N/A,,Clear,260,2013-12-07 19:53:00
12:53 PM,7.0,-0.0,73,30.30,10.0,WSW,13.8,-,N/A,,Clear,250,2013-12-07 20:53:00
1:53 PM,7.0,-0.9,70,30.32,10.0,West,12.7,-,N/A,,Clear,260,2013-12-07 21:53:00
2:53 PM,7.0,-0.9,70,30.34,10.0,WSW,9.2,-,N/A,,Clear,250,2013-12-07 22:53:00
3:53 PM,3.9,-2.9,73,30.37,10.0,WSW,8.1,-,N/A,,Clear,250,2013-12-07 23:53:00
4:53 PM,3.0,-4.0,73,30.39,10.0,West,5.8,-,N/A,,Clear,260,2013-12-08 00:53:00
5:53 PM,-0.9,-8.0,72,30.43,10.0,Calm,Calm,-,N/A,,Clear,0,2013-12-08 01:53:00
6:53 PM,-5.1,-9.0,83,30.44,10.0,Calm,Calm,-,N/A,,Clear,0,2013-12-08 02:53:00
7:53 PM,-7.1,-11.9,79,30.47,10.0,Calm,Calm,-,N/A,,Clear,0,2013-12-08 03:53:00
8:53 PM,-8.0,-15.0,71,30.47,10.0,Calm,Calm,-,N/A,,Clear,0,2013-12-08 04:53:00
9:53 PM,-9.0,-15.0,75,30.47,10.0,Calm,Calm,-,N/A,,Clear,0,2013-12-08 05:53:00
10:53 PM,-8.0,-14.1,75,30.47,10.0,Calm,Calm,-,N/A,,Clear,0,2013-12-08 06:53:00
11:53 PM,-9.9,-16.1,74,30.48,10.0,Calm,Calm,-,N/A,,Clear,0,2013-12-08 07:53:00